Palmdale - Butte, CA

3:16 PM PDT on September 26, 2017 (GMT -0700)
Palmdale - Butte

Weather History for KGXA - October, 2013

Change the Weather History Date:

Monday, October 14, 2013

  Actual Average (KPMD) Record (KPMD)
Temperature  
Mean Temperature 55 °F -  
Max Temperature 69 °F 79 °F 95 °F (1936)
Min Temperature 41 °F 48 °F 33 °F (1981)
Degree Days  
Heating Degree Days 10    
Growing Degree Days 5 (Base 50)    
Moisture  
Dew Point 25 °F    
Average Humidity 33    
Maximum Humidity 60    
Minimum Humidity 17    
Precipitation  
Precipitation 0.00 in - - ()
Sea Level Pressure  
Sea Level Pressure 30.10 in    
Wind  
Wind Speed 6 mph (ESE)    
Max Wind Speed 12 mph    
Max Gust Speed 20 mph    
Visibility 10 miles    
Events      
Averages and records for this station are not official NWS values.
T = Trace of Precipitation, MM = Missing Value Source: NWS Daily Summary

Daily Weather History Graph

Daily Weather History Graph

Search for Another Location

Airport or City:

Trip Planner

Search our weather history database for the weather conditions in past years. The results will help you decide how hot, cold, wet, or windy it might be!

Date:

Astronomy

Oct. 14, 2013 Rise Set
Actual Time 6:55 AM PDT 6:16 PM PDT
Civil Twilight 6:30 AM PDT 6:42 PM PDT
Nautical Twilight 6:01 AM PDT 7:11 PM PDT
Astronomical Twilight 5:31 AM PDT 7:40 PM PDT
Moon 3:40 PM PDT (10/14) 2:28 AM PDT (10/14)
Length of Visible Light 12h 11m
Length of Day
11h 21m
Waxing Gibbous, 80% of the Moon is Illuminated
Oct 14
Waxing Gibbous
Oct 18
Full
Oct 26
Last Quarter
Nov 3
New
Nov 9
First Quarter

Hourly Weather History & Observations

Time (PDT) Temp. Windchill Dew Point Humidity Pressure Visibility Wind Dir Wind Speed Gust Speed Precip Events Conditions
12:55 AM 44.6 °F 42.2 °F 25.0 °F 46% 30.07 in 10.0 mi SSE 4.6 mph - N/A   Clear
1:55 AM 42.6 °F 39.0 °F 27.9 °F 56% 30.09 in 10.0 mi SSE 5.8 mph - N/A   Clear
2:55 AM 41.9 °F 40.0 °F 25.2 °F 52% 30.09 in 10.0 mi SSE 3.5 mph - N/A   Clear
3:55 AM 42.6 °F 39.9 °F 28.8 °F 58% 30.09 in 10.0 mi SSE 4.6 mph - N/A   Clear
4:55 AM 42.4 °F 39.6 °F 29.5 °F 60% 30.11 in 10.0 mi SSE 4.6 mph - N/A   Clear
5:55 AM 42.1 °F 39.2 °F 25.2 °F 51% 30.13 in 10.0 mi SSE 4.6 mph - N/A   Clear
6:55 AM 41.4 °F 38.4 °F 26.6 °F 56% 30.17 in 10.0 mi SSE 4.6 mph - N/A   Clear
7:55 AM 48.4 °F - 28.8 °F 47% 30.18 in 10.0 mi SSE 3.5 mph - N/A   Clear
8:55 AM 59.0 °F - 28.2 °F 31% 30.16 in 10.0 mi ENE 5.8 mph - N/A   Clear
9:55 AM 61.9 °F - 27.1 °F 27% 30.17 in 10.0 mi ENE 9.2 mph - N/A   Clear
10:55 AM 64.6 °F - 27.0 °F 24% 30.15 in 10.0 mi ENE 11.5 mph - N/A   Clear
11:55 AM 66.0 °F - 26.4 °F 22% 30.14 in 10.0 mi East 10.4 mph 19.6 mph N/A   Clear
12:55 PM 67.6 °F - 25.0 °F 20% 30.12 in 10.0 mi ENE 8.1 mph - N/A   Clear
1:55 PM 68.7 °F - 23.9 °F 18% 30.09 in 10.0 mi ENE 9.2 mph - N/A   Clear
2:55 PM 69.4 °F - 23.0 °F 17% 30.07 in 10.0 mi NE 11.5 mph 17.3 mph N/A   Clear
3:55 PM 69.8 °F - 23.5 °F 18% 30.05 in 10.0 mi ENE 10.4 mph 16.1 mph N/A   Clear
4:55 PM 69.3 °F - 23.2 °F 18% 30.04 in 10.0 mi NE 8.1 mph 16.1 mph N/A   Clear
5:55 PM 67.8 °F - 23.7 °F 19% 30.05 in 10.0 mi NE 8.1 mph - N/A   Clear
6:55 PM 62.1 °F - 22.6 °F 22% 30.07 in 10.0 mi East 3.5 mph - N/A   Clear
7:55 PM 57.6 °F - 21.0 °F 24% 30.07 in 10.0 mi SE 4.6 mph - N/A   Clear
8:55 PM 54.0 °F - 21.6 °F 28% 30.06 in 10.0 mi SSE 5.8 mph - N/A   Clear
9:55 PM 53.4 °F - 21.6 °F 29% 30.07 in 10.0 mi SSE 4.6 mph - N/A   Clear
10:55 PM 52.3 °F - 21.4 °F 30% 30.07 in 10.0 mi SSE 5.8 mph - N/A   Clear
11:55 PM 51.1 °F - 20.8 °F 31% 30.06 in 10.0 mi South 6.9 mph - N/A   Clear